Regional Weather Roundup
Issued by NWS

Home | Current Version | Previous Version | Graphics & Text | Print | Product List | Glossary On
Versions: 1 2 3 4 5 6 7 8 9 10 11 12 13 14 15 16 17 18 19 20 21 22 23 24 25 26 27 28 29 30 31 32 33 34 35 36 37 38 39 40 41 42 43 44 45 46 47 48 49 50
405
ASUS44 KJAN 231903
RWRMS

MISSISSIPPI HOURLY WEATHER ROUNDUP
NATIONAL WEATHER SERVICE JACKSON MS
100 PM CST SUN NOV 23 2014

NOTE: "FAIR: INDICATES FEW OR NO CLOUDS BELOW 12,000 FEET WITH NO
SIGNIFICANT WEATHER AND/OR OBSTRUCTIONS TO VISIBILITY.

MSZ001>002-007>008-010>013-018>021-025>028-034>036-232000-
NORTHWEST MISSISSIPPI

CITY           SKY/WX    TMP DP  RH WIND       PRES   REMARKS
CLARKSDALE     CLOUDY    61  61 100 SE7       29.38F
CLEVELAND      LGT RAIN  63  63  97 S20G33    29.32F
GREENWOOD      CLOUDY    67  62  84 S21G30    29.41F
GREENVILLE     CLOUDY    63  61  93 SW21      29.31F FOG
GRENADA        LGT RAIN  63  61  94 S15       29.42F
OLIVE BRANCH   RAIN      57  57 100 SE8       29.41F FOG
OXFORD         CLOUDY    59  57  94 S9        29.43F
TUNICA         LGT RAIN  59  59 100 SE6       29.40F
$$

MSZ003>006-009-014>017-022>024-029>033-037>039-232000-
NORTHEAST MISSISSIPPI

CITY           SKY/WX    TMP DP  RH WIND       PRES   REMARKS
COLUMBUS AFB   LGT RAIN  65  65 100 S16G22    29.47F
CORINTH        LGT RAIN  61  59  94 E12       29.43F
GOLDN TRIANGLE PTSUNNY   64  63  94 S14G21    29.47F
STARKVILLE       N/A     64  63  94 S10G18    29.47F
TUPELO         LGT RAIN  62  59  90 MISG      29.46F
$$

MSZ040-058-232000-
CENTRAL MISSISSIPPI

CITY           SKY/WX    TMP DP  RH WIND       PRES   REMARKS
JACKSON INTL   PTSUNNY   68  58  70 SW23G37   29.50F
JACKSON HAWKNS CLOUDY    67  57  70 SW14G36   29.51F
MERIDIAN KEY   LGT RAIN  67  61  81 S18G35    29.55F
MERIDIAN NAS   CLOUDY    67  60  78 S15G28    29.55S
RAYMOND        CLOUDY    66  63  88 SW16G35   29.51F
VICKSBURG      LGT RAIN  64  60  87 SW12G23   29.51F
$$

MSZ059>079-232000-
SOUTH MISSISSIPPI

CITY           SKY/WX    TMP DP  RH WIND       PRES   REMARKS
BROOKHAVEN     CLOUDY    66  59  77 S14G23    29.58F
HATTIESBURG    PTSUNNY   69  59  70 SW18G29   29.62F
MCCOMB         CLOUDY    67  58  72 SW16G26   29.59F
NATCHEZ        CLOUDY    68  57  68 SW12G24   29.56F
PINE BELT      CLOUDY    66  57  72 SW15G26   29.61F
$$

MSZ080>082-232000-
COASTAL MISSISSIPPI

CITY           SKY/WX    TMP DP  RH WIND       PRES   REMARKS
BAY ST LOUIS   PTSUNNY   70  59  68 MISG      29.68F
BILOXI         CLOUDY    63  61  92 SW17G24   29.68S
PASCAGOULA     CLOUDY    67  61  81 SW10G22   29.69R
GULFPORT       PTSUNNY   64  60  87 SW9G22    29.68S
$$



USA.gov is the U.S. government's official web portal to all federal, state and local government web resources and services.